TimeEDT,TemperatureF,Dew PointF,Humidity,Sea Level PressureIn,VisibilityMPH,Wind Direction,Wind SpeedMPH,Gust SpeedMPH,PrecipitationIn,Events,Conditions,WindDirDegrees,DateUTC
12:51 AM,63.0,44.1,50,29.64,10.0,SSW,12.7,21.9,N/A,,Mostly Cloudy,210,2011-10-17 04:51:00
1:51 AM,63.0,46.0,54,29.66,10.0,WSW,11.5,19.6,N/A,,Mostly Cloudy,250,2011-10-17 05:51:00
2:51 AM,63.0,45.0,52,29.65,10.0,West,10.4,-,N/A,,Mostly Cloudy,260,2011-10-17 06:51:00
3:51 AM,61.0,46.0,58,29.66,10.0,WNW,13.8,21.9,N/A,,Mostly Cloudy,290,2011-10-17 07:51:00
4:51 AM,61.0,46.9,60,29.68,10.0,West,16.1,19.6,N/A,,Mostly Cloudy,270,2011-10-17 08:51:00
5:51 AM,60.1,44.1,55,29.69,10.0,WNW,15.0,-,0.00,Rain,Light Rain,290,2011-10-17 09:51:00
6:51 AM,57.9,48.0,70,29.71,10.0,West,12.7,-,0.00,Rain,Light Rain,270,2011-10-17 10:51:00
7:51 AM,57.9,48.0,70,29.76,10.0,WNW,12.7,20.7,0.00,,Mostly Cloudy,290,2011-10-17 11:51:00
8:51 AM,57.9,43.0,58,29.79,10.0,WNW,11.5,-,N/A,,Mostly Cloudy,300,2011-10-17 12:51:00
9:51 AM,59.0,39.9,49,29.80,10.0,West,12.7,-,N/A,,Scattered Clouds,270,2011-10-17 13:51:00
10:51 AM,61.0,36.0,39,29.79,10.0,West,15.0,-,N/A,,Scattered Clouds,270,2011-10-17 14:51:00
11:51 AM,63.0,34.0,34,29.78,10.0,WSW,12.7,-,N/A,,Scattered Clouds,240,2011-10-17 15:51:00
12:51 PM,64.9,32.0,29,29.75,10.0,West,16.1,24.2,N/A,,Scattered Clouds,260,2011-10-17 16:51:00
1:51 PM,64.4,28.4,26,29.73,10.0,West,18.4,26.5,N/A,,Partly Cloudy,270,2011-10-17 17:51:00
2:51 PM,66.0,28.9,25,29.72,10.0,WSW,15.0,25.3,N/A,,Partly Cloudy,250,2011-10-17 18:51:00
3:51 PM,66.9,28.0,23,29.71,10.0,WSW,13.8,24.2,N/A,,Partly Cloudy,240,2011-10-17 19:51:00
4:51 PM,66.0,28.9,25,29.71,10.0,WSW,17.3,25.3,N/A,,Partly Cloudy,240,2011-10-17 20:51:00
5:51 PM,64.4,30.2,28,29.72,10.0,WSW,17.3,25.3,N/A,,Partly Cloudy,250,2011-10-17 21:51:00
6:51 PM,64.0,30.9,29,29.74,10.0,WSW,11.5,24.2,N/A,,Partly Cloudy,240,2011-10-17 22:51:00
7:51 PM,64.4,30.2,28,29.76,10.0,SW,13.8,23.0,N/A,,Partly Cloudy,230,2011-10-17 23:51:00
8:51 PM,63.0,32.0,31,29.76,10.0,SW,10.4,-,N/A,,Partly Cloudy,220,2011-10-18 00:51:00
9:51 PM,63.0,33.1,33,29.78,10.0,SW,11.5,-,N/A,,Partly Cloudy,220,2011-10-18 01:51:00
10:51 PM,61.0,36.0,39,29.78,10.0,SW,12.7,-,N/A,,Partly Cloudy,230,2011-10-18 02:51:00
11:51 PM,60.1,39.0,46,29.79,10.0,SW,11.5,19.6,N/A,,Partly Cloudy,220,2011-10-18 03:51:00